Regional Weather Roundup
Issued by NWS

Home | Current Version | Previous Version | Text Only | Print | Product List | Glossary Off
Versions: 1 2 3 4 5 6 7 8 9 10 11 12 13 14 15 16 17 18 19 20 21 22 23 24 25 26 27 28 29 30 31 32 33 34 35 36 37 38 39 40 41 42 43 44 45 46 47 48 49 50

000
ASUS45 KABQ 052310
RWRNM
WEATHER ROUNDUP FOR NEW MEXICO
NATIONAL WEATHER SERVICE ALBUQUERQUE NM
500 PM MDT TUE MAY 05 2015

NOTE: "FAIR" MEANS FEW OR NO CLOUDS BELOW 12,000 FEET AGL WITH NO
       SIGNIFICANT WEATHER OR OBSTRUCTIONS TO VISION.

      THIS PRODUCT IS RELEASED AS TWO VERSIONS.  ONE VERSION NEAR
      THE TOP OF THE HOUR CONTAINING PRELIMINARY DATA FROM ALBUQUERQUE
      AND OTHER STATIONS.  A FINAL VERSION WITH ADDITIONAL DATA IS
      ISSUED ABOUT 10 MINUTES AFTER THE HOUR.

NMZ501-503-504-510>518-060000-
NORTHWEST PLATEAU/NORTHCENTRAL MOUNTAINS

CITY           SKY/WX    TMP DP  RH WIND       PRES   REMARKS
FARMINGTON     MOSUNNY   56  46  69 SW9       29.86F
LOS ALAMOS     MOSUNNY   55  37  50 W5        29.91S
SANTA FE       MOSUNNY   61  37  41 W18G28    29.87S
TAOS           MOSUNNY   55  36  47 W20       29.88F
ANGEL FIRE     MOCLDY    48  39  71 SW7       29.93R

$$
NMZ402-403-502-505>509-060000-
WESTCENTRAL MOUNTAINS/SOUTHWEST MOUNTAINS

CITY           SKY/WX    TMP DP  RH WIND       PRES   REMARKS
GALLUP         CLOUDY    52  43  71 W10       29.94F
GRANTS         CLOUDY    57  42  56 NW12G17   29.94F THUNDER
SILVER CITY      N/A     68  36  30 W20G30    29.97S

$$
NMZ407-409-411-412-060000-
SOUTHERN DESERTS

CITY           SKY/WX    TMP DP  RH WIND       PRES   REMARKS
LORDSBURG      MOCLDY    73  34  23 W17G25    29.91F
DEMING         SUNNY     75  35  23 W21G32    29.89F
LAS CRUCES     PTSUNNY   74  32  21 W20       29.90S
ALAMOGORDO     CLOUDY    75  30  19 W15G26    29.87S
T OR C         MOSUNNY   73  33  23 W20G28    29.85F

$$
NMZ519>523-060000-
CENTRAL VALLEYS/CENTRAL HIGHLANDS

CITY           SKY/WX    TMP DP  RH WIND       PRES   REMARKS
ALBUQUERQUE    LGT RAIN  55  47  74 SE12      29.90F
DOUBLE EAGLE   PTSUNNY   55  45  67 S7        29.91F
MORIARTY ARPT  LGT RAIN  48  42  81 W9G20     29.95R
CLINES CORNERS PTSUNNY   53  38  56 W22       29.91R
BELEN          MOCLDY    63  42  45 W10       29.89F
SOCORRO        CLOUDY    58  48  67 NW16      29.88S

$$
NMZ524>526-539-540-060000-
SOUTHCENTRAL MOUNTAINS

CITY           SKY/WX    TMP DP  RH WIND       PRES   REMARKS
RUIDOSO        PTSUNNY   59  32  36 SW29      29.96S

$$
NMZ527>531-060000-
NORTHEAST HIGHLANDS/NORTHEAST PLAINS

CITY           SKY/WX    TMP DP  RH WIND       PRES   REMARKS
LAS VEGAS      MOSUNNY   58  38  47 SW30G36   29.86F
RATON          PTSUNNY   59  38  45 SW8       29.80F
CLAYTON        PTSUNNY   63  51  65 S17       29.79F

$$
NMZ532>537-060000-
EASTCENTRAL PLAINS

CITY           SKY/WX    TMP DP  RH WIND       PRES   REMARKS
TUCUMCARI      CLOUDY    63  48  58 SW16      29.78F
CANNON AFB     NOT AVBL
CLOVIS AIRPORT CLOUDY    59  46  63 W16G23    29.84F

$$
NMZ028-029-538-060000-
SOUTHEAST PLAINS

CITY           SKY/WX    TMP DP  RH WIND       PRES   REMARKS
ROSWELL        MOSUNNY   77  38  24 SW16G25   29.78F
ARTESIA        SUNNY     79  34  19 SW26G33   29.82S
CARLSBAD       MOSUNNY   79  35  20 W25       29.81F
HOBBS          MOSUNNY   75  39  27 SW20G26   29.85S


$$



USA.gov is the U.S. government's official web portal to all federal, state and local government web resources and services.